CGMPW CYYC-CYEG

Flight info

Callsign CGMPW
Flight time 0h 36m
Altitude 20000
Route BITGA Q995 OILRS OILRS2
Aircraft PC24/L-SBDGIRWY/LB2

Departure

Time 2026-05-05 22:28
Airport Calgary International Airport (CYYC)

Arrival

Time 2026-05-05 23:04
Airport Edmonton International Airport (CYEG)
Time Latitude Longitude Altitude Speed Heading
2026-05-05 22:16 51.10139 -114.03164 3536 ft 0 kts 90°
2026-05-05 22:24 51.10188 -114.03136 3536 ft 14 kts
2026-05-05 22:25 51.10241 -114.03033 3537 ft 11 kts 86°
2026-05-05 22:25 51.10243 -114.02929 3539 ft 9 kts 91°
2026-05-05 22:25 51.10242 -114.02798 3543 ft 14 kts 91°
2026-05-05 22:25 51.10233 -114.02619 3548 ft 18 kts 109°
2026-05-05 22:26 51.10145 -114.02580 3552 ft 15 kts 178°
2026-05-05 22:26 51.10032 -114.02573 3556 ft 18 kts 178°
2026-05-05 22:26 51.09898 -114.02569 3560 ft 19 kts 179°
2026-05-05 22:26 51.09812 -114.02470 3564 ft 14 kts 122°
2026-05-05 22:27 51.09801 -114.02441 3565 ft 0 kts 122°
2026-05-05 22:27 51.09791 -114.02419 3565 ft 13 kts 123°
2026-05-05 22:27 51.09721 -114.02197 3569 ft 20 kts 94°
2026-05-05 22:27 51.09868 -114.02144 3564 ft 51 kts 359°
2026-05-05 22:28 51.10542 -114.02148 3553 ft 138 kts
2026-05-05 22:28 51.11705 -114.02175 3743 ft 195 kts 359°
2026-05-05 22:28 51.13196 -114.02266 4429 ft 232 kts 358°
2026-05-05 22:28 51.14940 -114.02204 5002 ft 266 kts
2026-05-05 22:29 51.16665 -114.01817 5640 ft 239 kts
2026-05-05 22:29 51.18394 -114.01521 6252 ft 266 kts
2026-05-05 22:29 51.20309 -114.01282 6811 ft 285 kts
2026-05-05 22:29 51.22319 -114.01021 7237 ft 292 kts
2026-05-05 22:30 51.24355 -114.00747 7649 ft 295 kts
2026-05-05 22:30 51.26416 -114.00467 8070 ft 297 kts
2026-05-05 22:30 51.28476 -114.00185 8487 ft 299 kts
2026-05-05 22:30 51.30530 -113.99906 8909 ft 300 kts
2026-05-05 22:31 51.32622 -113.99623 9342 ft 302 kts
2026-05-05 22:31 51.34729 -113.99335 9826 ft 306 kts
2026-05-05 22:31 51.36858 -113.99045 10255 ft 307 kts
2026-05-05 22:31 51.38993 -113.98756 10648 ft 308 kts
2026-05-05 22:32 51.41128 -113.98463 11046 ft 307 kts
2026-05-05 22:32 51.43259 -113.98172 11451 ft 307 kts
2026-05-05 22:32 51.45389 -113.97882 11860 ft 307 kts
2026-05-05 22:32 51.47510 -113.97589 12271 ft 306 kts
2026-05-05 22:33 51.49596 -113.97237 12687 ft 306 kts
2026-05-05 22:33 51.51677 -113.96463 13100 ft 307 kts 10°
2026-05-05 22:33 51.53768 -113.95758 13538 ft 306 kts
2026-05-05 22:33 51.55852 -113.95066 13978 ft 305 kts
2026-05-05 22:34 51.57921 -113.94341 14370 ft 304 kts
2026-05-05 22:34 51.59988 -113.93615 14758 ft 303 kts
2026-05-05 22:34 51.61355 -113.93140 15013 ft 303 kts
2026-05-05 22:34 51.63409 -113.92363 15405 ft 302 kts 11°
2026-05-05 22:35 51.66114 -113.91270 15931 ft 303 kts 11°
2026-05-05 22:35 51.68157 -113.90455 16333 ft 302 kts 11°
2026-05-05 22:35 51.70198 -113.89643 16786 ft 301 kts 11°
2026-05-05 22:35 51.71545 -113.89106 17063 ft 300 kts 11°
2026-05-05 22:36 51.73572 -113.88290 17487 ft 299 kts 11°
2026-05-05 22:36 51.75590 -113.87483 17915 ft 299 kts 11°
2026-05-05 22:36 51.77607 -113.86671 18349 ft 298 kts 11°
2026-05-05 22:36 51.79618 -113.85866 18728 ft 298 kts 11°
2026-05-05 22:37 51.81647 -113.85049 19099 ft 302 kts 11°
2026-05-05 22:37 51.83695 -113.84228 19482 ft 304 kts 11°
2026-05-05 22:37 51.85761 -113.83393 19868 ft 307 kts 11°
2026-05-05 22:37 51.87849 -113.82552 20065 ft 311 kts 11°
2026-05-05 22:38 51.89952 -113.81701 20062 ft 310 kts 11°
2026-05-05 22:38 51.92036 -113.80861 20065 ft 308 kts 11°
2026-05-05 22:38 51.94086 -113.80030 20066 ft 307 kts 11°
2026-05-05 22:38 51.96157 -113.79194 20064 ft 306 kts 11°
2026-05-05 22:39 51.98224 -113.78355 20064 ft 306 kts 11°
2026-05-05 22:39 52.00298 -113.77516 20065 ft 307 kts 11°
2026-05-05 22:39 52.02370 -113.76673 20063 ft 307 kts 11°
2026-05-05 22:39 52.04448 -113.75829 20013 ft 308 kts 11°
2026-05-05 22:40 52.06530 -113.74983 20006 ft 308 kts 11°
2026-05-05 22:40 52.08611 -113.74135 20005 ft 309 kts 11°
2026-05-05 22:40 52.10675 -113.73295 20042 ft 310 kts 11°
2026-05-05 22:40 52.12756 -113.72445 20015 ft 306 kts 11°
2026-05-05 22:41 52.14821 -113.71602 20014 ft 305 kts 11°
2026-05-05 22:41 52.16887 -113.70758 20012 ft 306 kts 11°
2026-05-05 22:41 52.18956 -113.69912 20010 ft 306 kts 11°
2026-05-05 22:41 52.21028 -113.69064 20012 ft 307 kts 11°
2026-05-05 22:42 52.23080 -113.68222 20015 ft 307 kts 11°
2026-05-05 22:42 52.25150 -113.67374 20020 ft 307 kts 11°
2026-05-05 22:42 52.27222 -113.66522 20027 ft 307 kts 11°
2026-05-05 22:42 52.29304 -113.65667 20026 ft 307 kts 11°
2026-05-05 22:43 52.31373 -113.64815 20033 ft 306 kts 11°
2026-05-05 22:43 52.33438 -113.63966 20040 ft 306 kts 11°
2026-05-05 22:43 52.35509 -113.63111 20031 ft 306 kts 11°
2026-05-05 22:43 52.37576 -113.62260 20038 ft 307 kts 12°
2026-05-05 22:44 52.39653 -113.61401 19992 ft 310 kts 12°
2026-05-05 22:44 52.41754 -113.60534 19636 ft 310 kts 12°
2026-05-05 22:44 52.43824 -113.59674 19238 ft 305 kts 12°
2026-05-05 22:44 52.45875 -113.58826 18840 ft 302 kts 12°
2026-05-05 22:45 52.47902 -113.57985 18438 ft 299 kts 12°
2026-05-05 22:45 52.49888 -113.57162 18034 ft 298 kts 12°
2026-05-05 22:45 52.51902 -113.56326 17657 ft 300 kts 12°
2026-05-05 22:45 52.53944 -113.55478 17240 ft 304 kts 12°
2026-05-05 22:46 52.56004 -113.54620 16837 ft 306 kts 12°
2026-05-05 22:46 52.58075 -113.53757 16431 ft 307 kts 12°
2026-05-05 22:46 52.60148 -113.52891 16030 ft 308 kts 12°
2026-05-05 22:46 52.62247 -113.52223 15620 ft 307 kts
2026-05-05 22:47 52.64381 -113.52092 15210 ft 308 kts 358°
2026-05-05 22:47 52.66524 -113.52303 14816 ft 308 kts 357°
2026-05-05 22:47 52.68640 -113.52465 14417 ft 309 kts 357°
2026-05-05 22:47 52.70795 -113.52630 14000 ft 311 kts 357°
2026-05-05 22:48 52.72956 -113.52812 13569 ft 310 kts 356°
2026-05-05 22:48 52.75108 -113.52994 13159 ft 309 kts 356°
2026-05-05 22:48 52.77253 -113.53173 12751 ft 309 kts 357°
2026-05-05 22:48 52.79399 -113.53347 12345 ft 308 kts 356°
2026-05-05 22:49 52.81543 -113.53530 11941 ft 309 kts 356°
2026-05-05 22:49 52.83695 -113.53708 11534 ft 308 kts 356°
2026-05-05 22:49 52.85833 -113.53886 11126 ft 307 kts 356°
2026-05-05 22:49 52.87946 -113.54064 10720 ft 307 kts 356°
2026-05-05 22:50 52.90079 -113.54237 10319 ft 307 kts 356°
2026-05-05 22:50 52.92205 -113.54416 9903 ft 306 kts 356°
2026-05-05 22:50 52.94335 -113.54598 9490 ft 304 kts 356°
2026-05-05 22:50 52.96443 -113.54773 9085 ft 302 kts 356°
2026-05-05 22:51 52.98536 -113.54948 8681 ft 300 kts 356°
2026-05-05 22:51 53.00620 -113.55121 8277 ft 299 kts 356°
2026-05-05 22:51 53.02699 -113.55274 7859 ft 296 kts
2026-05-05 22:51 53.04581 -113.54484 7548 ft 269 kts 23°
2026-05-05 22:52 53.06111 -113.52966 7529 ft 244 kts 38°
2026-05-05 22:52 53.07287 -113.51054 7530 ft 231 kts 43°
2026-05-05 22:52 53.08364 -113.49139 7526 ft 224 kts 54°
2026-05-05 22:52 53.08893 -113.46676 7535 ft 231 kts 79°
2026-05-05 22:53 53.08756 -113.44041 7545 ft 236 kts 105°
2026-05-05 22:53 53.07926 -113.41700 7587 ft 237 kts 131°
2026-05-05 22:53 53.06750 -113.39751 7595 ft 240 kts 133°
2026-05-05 22:53 53.05556 -113.37800 7591 ft 241 kts 134°
2026-05-05 22:54 53.04365 -113.35844 7591 ft 239 kts 133°
2026-05-05 22:54 53.03119 -113.34037 7586 ft 238 kts 139°
2026-05-05 22:54 53.01831 -113.32262 7588 ft 241 kts 138°
2026-05-05 22:54 53.00616 -113.30566 7592 ft 241 kts 138°
2026-05-05 22:55 52.99357 -113.28749 7573 ft 235 kts 130°
2026-05-05 22:55 52.98759 -113.26354 7571 ft 220 kts 87°
2026-05-05 22:55 52.99249 -113.24184 7567 ft 191 kts 42°
2026-05-05 22:55 53.00373 -113.23481 7566 ft 168 kts 352°
2026-05-05 22:56 53.01316 -113.24425 7578 ft 157 kts 321°
2026-05-05 22:56 53.02014 -113.25775 7575 ft 157 kts 297°
2026-05-05 22:56 53.02506 -113.27408 7587 ft 159 kts 308°
2026-05-05 22:56 53.03253 -113.28706 7592 ft 157 kts 325°
2026-05-05 22:57 53.04149 -113.29758 7587 ft 157 kts 328°
2026-05-05 22:57 53.05060 -113.30762 7584 ft 157 kts 328°
2026-05-05 22:57 53.05963 -113.31764 7583 ft 156 kts 328°
2026-05-05 22:57 53.06872 -113.32764 7491 ft 160 kts 328°
2026-05-05 22:58 53.07810 -113.33804 7282 ft 161 kts 328°
2026-05-05 22:58 53.08735 -113.34829 7062 ft 157 kts 328°
2026-05-05 22:58 53.09636 -113.35825 6855 ft 155 kts 328°
2026-05-05 22:58 53.10531 -113.36818 6648 ft 155 kts 328°
2026-05-05 22:59 53.11413 -113.37794 6446 ft 154 kts 328°
2026-05-05 22:59 53.12299 -113.38777 6240 ft 151 kts 328°
2026-05-05 22:59 53.13167 -113.39741 6043 ft 150 kts 328°
2026-05-05 22:59 53.14044 -113.40715 5847 ft 153 kts 328°
2026-05-05 23:00 53.15822 -113.42693 5434 ft 152 kts 328°
2026-05-05 23:00 53.16705 -113.43662 5225 ft 151 kts 331°
2026-05-05 23:00 53.17694 -113.44169 4957 ft 150 kts 355°
2026-05-05 23:01 53.18716 -113.44043 4789 ft 147 kts 11°
2026-05-05 23:01 53.19732 -113.43917 4611 ft 148 kts 355°
2026-05-05 23:01 53.20751 -113.44223 4440 ft 150 kts 343°
2026-05-05 23:01 53.21691 -113.44934 4260 ft 151 kts 330°
2026-05-05 23:02 53.22512 -113.46025 4084 ft 152 kts 317°
2026-05-05 23:02 53.23242 -113.47259 3867 ft 144 kts 318°
2026-05-05 23:02 53.23926 -113.48390 3653 ft 133 kts 317°
2026-05-05 23:02 53.24573 -113.49462 3482 ft 131 kts 318°
2026-05-05 23:03 53.25225 -113.50547 3300 ft 131 kts 319°
2026-05-05 23:03 53.25876 -113.51632 3124 ft 134 kts 318°
2026-05-05 23:03 53.26537 -113.52733 2944 ft 135 kts 318°
2026-05-05 23:03 53.27194 -113.53832 2765 ft 135 kts 317°
2026-05-05 23:04 53.27831 -113.54898 2612 ft 124 kts 319°
2026-05-05 23:04 53.28422 -113.55899 2416 ft 118 kts 317°
2026-05-05 23:04 53.28957 -113.56807 2342 ft 79 kts 319°
2026-05-05 23:04 53.29238 -113.57253 2347 ft 48 kts 316°
2026-05-05 23:05 53.29456 -113.57597 2346 ft 31 kts 327°
2026-05-05 23:05 53.29492 -113.57533 2347 ft 11 kts 93°
2026-05-05 23:05 53.29488 -113.57396 2347 ft 14 kts 91°
2026-05-05 23:05 53.29484 -113.57217 2347 ft 17 kts 102°
2026-05-05 23:06 53.29406 -113.57051 2346 ft 19 kts 136°
2026-05-05 23:06 53.29315 -113.56899 2345 ft 18 kts 134°
2026-05-05 23:06 53.29228 -113.56756 2345 ft 17 kts 135°
2026-05-05 23:06 53.29146 -113.56619 2344 ft 16 kts 135°
2026-05-05 23:07 53.29067 -113.56489 2344 ft 16 kts 136°
2026-05-05 23:07 53.28992 -113.56360 2343 ft 15 kts 134°
2026-05-05 23:07 53.28934 -113.56223 2342 ft 14 kts 92°
2026-05-05 23:07 53.28983 -113.56102 2342 ft 12 kts 38°
2026-05-05 23:08 53.29022 -113.56097 2342 ft 0 kts 344°